Lake Rabun Weather Center

Moon Phase Calendar



Lake Rabun Water Level
Online Cameras

 


      

Current Conditions in Clayton
6/17/2024 5:26:11 AM

70°F
Feels Like 70
Clouds
Humidity
85%
Pressure
30.09"
Wind
2.8 mph (NE)
Dew Point
65°F
UV Index
0/10 (Low)
Visibility
6 mi

Hourly Forecast

Date & Time Mon, Jun 17
5:00 AM
Mon, Jun 17
6:00 AM
Mon, Jun 17
7:00 AM
Mon, Jun 17
8:00 AM
Mon, Jun 17
9:00 AM
Mon, Jun 17
10:00 AM
Mon, Jun 17
11:00 AM
Mon, Jun 17
12:00 PM
Mon, Jun 17
1:00 PM
Mon, Jun 17
2:00 PM
Mon, Jun 17
3:00 PM
Mon, Jun 17
4:00 PM
Mon, Jun 17
5:00 PM
Mon, Jun 17
6:00 PM
Mon, Jun 17
7:00 PM
Mon, Jun 17
8:00 PM
Mon, Jun 17
9:00 PM
Mon, Jun 17
10:00 PM
Mon, Jun 17
11:00 PM
Tue, Jun 18
12:00 AM
Tue, Jun 18
1:00 AM
Tue, Jun 18
2:00 AM
Tue, Jun 18
3:00 AM
Tue, Jun 18
4:00 AM
Tue, Jun 18
5:00 AM
Tue, Jun 18
6:00 AM
Tue, Jun 18
7:00 AM
Tue, Jun 18
8:00 AM
Tue, Jun 18
9:00 AM
Tue, Jun 18
10:00 AM
Tue, Jun 18
11:00 AM
Tue, Jun 18
12:00 PM
Tue, Jun 18
1:00 PM
Tue, Jun 18
2:00 PM
Tue, Jun 18
3:00 PM
Tue, Jun 18
4:00 PM
Tue, Jun 18
5:00 PM
Tue, Jun 18
6:00 PM
Tue, Jun 18
7:00 PM
Tue, Jun 18
8:00 PM
Tue, Jun 18
9:00 PM
Tue, Jun 18
10:00 PM
Tue, Jun 18
11:00 PM
Wed, Jun 19
12:00 AM
Wed, Jun 19
1:00 AM
Wed, Jun 19
2:00 AM
Wed, Jun 19
3:00 AM
Wed, Jun 19
4:00 AM
Condition
Rain

Clouds

Clouds

Clouds

Clouds

Clouds

Clouds

Clouds

Clouds

Clouds

Clouds

Clouds

Clouds

Rain

Rain

Rain

Rain

Rain

Clouds

Clouds

Clouds

Clouds

Clouds

Clouds

Clouds

Clouds

Clouds

Clouds

Clouds

Clouds

Clouds

Clouds

Clouds

Clouds

Clouds

Clouds

Clouds

Clouds

Clouds

Clouds

Clouds

Clouds

Clouds

Clouds

Clouds

Clouds

Clouds

Clouds
Temperature 70°F69°F68°F69°F72°F76°F79°F81°F83°F85°F87°F87°F87°F77°F74°F72°F69°F69°F68°F67°F67°F67°F67°F67°F67°F67°F67°F68°F68°F71°F75°F77°F80°F82°F83°F83°F82°F81°F78°F74°F70°F68°F67°F67°F65°F64°F63°F62°F
Feels Like 70°F69°F69°F70°F73°F77°F79°F83°F85°F86°F87°F87°F86°F78°F75°F73°F70°F70°F69°F68°F68°F67°F67°F68°F68°F68°F68°F68°F69°F72°F75°F78°F80°F83°F83°F83°F82°F81°F78°F75°F70°F69°F67°F67°F65°F63°F62°F62°F
Cloudiness 99%95%86%73%87%73%79%80%71%67%38%40%47%60%67%64%52%76%84%88%90%92%100%100%95%97%97%98%100%100%100%100%100%100%100%100%100%100%100%100%100%100%100%100%100%94%99%99%
Visibility 6 mi6 mi6 mi6 mi6 mi6 mi6 mi6 mi6 mi6 mi6 mi6 mi6 mi6 mi6 mi6 mi6 mi6 mi6 mi6 mi6 mi6 mi6 mi6 mi6 mi6 mi6 mi6 mi6 mi6 mi6 mi6 mi6 mi6 mi6 mi6 mi6 mi6 mi6 mi6 mi6 mi6 mi6 mi6 mi6 mi6 mi6 mi6 mi
Precipitation 28%20%14%10%0%0%0%0%0%2%1%3%3%29%58%99%100%99%90%63%31%0%0%0%0%0%0%0%3%0%0%0%0%0%0%0%0%0%0%0%0%0%0%0%0%0%0%0%
Humidity 85%88%90%90%84%70%61%57%52%47%43%40%41%65%80%87%89%90%92%94%94%95%95%95%96%96%96%95%91%79%66%59%53%46%46%45%44%48%57%67%74%77%79%77%77%77%78%79%
Dew Point 65°F65°F65°F66°F67°F66°F65°F65°F64°F63°F62°F61°F61°F65°F68°F68°F66°F66°F66°F66°F66°F65°F65°F66°F66°F66°F66°F66°F66°F65°F63°F62°F61°F60°F60°F60°F58°F60°F62°F63°F62°F61°F61°F60°F58°F57°F56°F56°F
Pressure 30.09"30.09"30.12"30.15"30.15"30.18"30.18"30.18"30.15"30.15"30.12"30.09"30.09"30.12"30.12"30.12"30.15"30.15"30.18"30.18"30.18"30.18"30.18"30.18"30.18"30.18"30.21"30.21"30.24"30.24"30.21"30.21"30.18"30.15"30.15"30.15"30.15"30.15"30.12"30.15"30.18"30.21"30.21"30.24"30.24"30.24"30.24"30.27"
Wind Speed 2.8 mph2.9 mph2.8 mph2 mph2.2 mph3.2 mph5.2 mph6.8 mph7.3 mph7.4 mph7.2 mph6.8 mph8.8 mph6.2 mph4.7 mph4 mph2.5 mph3 mph3.6 mph3.8 mph3.8 mph3.3 mph2.9 mph2.7 mph2.6 mph2.2 mph2.9 mph3.1 mph3.5 mph6.2 mph7.7 mph8.8 mph10 mph10.9 mph11.2 mph12.6 mph11 mph9 mph7.1 mph5.5 mph4.4 mph4.5 mph4.4 mph4.1 mph4.5 mph4.8 mph4.6 mph4.4 mph
Wind
Direction
46°
NE
31°
NNE
23°
NNE
40°
NE
95°
E
121°
ESE
142°
SE
139°
SE
141°
SE
139°
SE
141°
SE
143°
SE
148°
SSE
126°
SE
106°
ESE
117°
ESE
80°
E
40°
NE
26°
NNE
26°
NNE
30°
NNE
32°
NNE
53°
NE
59°
ENE
63°
ENE
88°
E
103°
ESE
114°
ESE
115°
ESE
102°
ESE
105°
ESE
109°
ESE
109°
ESE
119°
ESE
135°
SE
129°
SE
110°
ESE
91°
E
77°
ENE
70°
ENE
51°
NE
31°
NNE
10°
N
32°
NNE
58°
ENE
46°
NE
49°
NE
50°
NE

Daily Forecast

Date High Low Precip. Humidity
Today
Jun 17

Rain
87 °F
68 °F
100%
52%
Tuesday
Jun 18

Clouds
83 °F
67 °F
63%
53%
Wednesday
Jun 19

Clouds
80 °F
60 °F
0%
43%
Thursday
Jun 20

Clear
85 °F
61 °F
0%
41%
Friday
Jun 21

Clear
86 °F
63 °F
0%
38%
Saturday
Jun 22

Clear
89 °F
66 °F
0%
35%
Sunday
Jun 23

Clear
93 °F
72 °F
0%
28%
Monday
Jun 24

Clouds
91 °F
70 °F
0%
36%
Tuesday
Jun 25

Rain
91 °F
69 °F
85%
36%
Wednesday
Jun 26

Rain
84 °F
66 °F
100%
59%
Thursday
Jun 27

Rain
77 °F
67 °F
100%
71%
Friday
Jun 28

Clouds
80 °F
61 °F
0%
42%
Saturday
Jun 29

Clear
83 °F
59 °F
0%
40%
Sunday
Jun 30

Clear
85 °F
68 °F
0%
38%
Monday
Jul 1

Clouds
85 °F
65 °F
0%
35%
Tuesday
Jul 2

Rain
86 °F
67 °F
79%
41%

Temperature 8-14 Day Outlook



Precipitation 8-14 Day Outlook






About Us
Contact Us
Site Map
Search Site
Advertise With Us
   
Rabun.USLakes.info
THE LAKE RABUN WEBSITE

Copyright 2024, Lakes Online
Privacy    |    Legal